EW6014 Weather Reports


Display with metric or nautical units.
time (UTC)temp
F
wind
direction
speed
MPH
gust
MPH
rain 1hr
in
rain 24hr
in
rain mn
in
humidity
%
barometer
mb
20260510114531 67 13 0.0 1.0 0.01 0.04 0.03 93 1014.4
20260510114529 67 13 0.0 1.0 0.01 0.04 0.03 93 1015.2
20260510113037 67 13 0.0 0.0 0.01 0.04 0.03 93 1014.3
20260510113029 67 0 0.0 0.0 0.01 0.04 0.03 93 1015.1
20260510111530 67 0 0.0 0.0 0.00 0.03 0.02 92 1014.8
20260510111527 67 13 0.0 0.0 0.00 0.03 0.02 93 1014.1
20260510110039 67 13 0.0 0.0 0.00 0.03 0.02 93 1013.9
20260510110030 67 0 0.0 0.0 0.00 0.03 0.02 92 1014.7
20260510104530 67 0 0.0 3.0 0.00 0.03 0.02 92 1014.6
20260510104524 67 13 0.0 3.0 0.00 0.03 0.02 93 1013.9
20260510103029 67 0 0.0 0.0 0.00 0.03 0.02 92 1014.2
20260510103023 67 13 0.0 0.0 0.00 0.03 0.02 92 1013.5
20260510101531 67 0 0.0 3.0 0.00 0.03 0.02 92 1014.1
20260510101521 67 13 0.0 3.0 0.00 0.03 0.02 92 1013.3
20260510100030 67 0 0.0 1.0 0.00 0.03 0.02 92 1014.1
20260510100021 67 23 0.0 1.0 0.00 0.03 0.02 92 1013.3
20260510094543 67 0 0.0 0.0 0.00 0.03 0.02 92 1013.9
20260510094532 67 24 0.0 0.0 0.00 0.03 0.02 92 1013.1
20260510093035 67 0 0.0 0.0 0.00 0.03 0.02 92 1013.9
20260510093020 67 24 0.0 0.0 0.00 0.03 0.02 92 1013.0
20260510091539 67 0 0.0 0.0 0.00 0.03 0.02 91 1013.7
20260510091518 67 24 0.0 0.0 0.00 0.03 0.02 92 1012.9
20260510090033 67 0 0.0 0.0 0.00 0.03 0.02 91 1013.7
20260510090017 67 25 0.0 0.0 0.00 0.03 0.02 92 1012.9
20260510084534 67 0 0.0 0.0 0.00 0.03 0.02 91 1013.2
20260510084516 67 24 0.0 0.0 0.00 0.03 0.02 92 1012.5
20260510083048 67 0 0.0 0.0 0.00 0.03 0.02 91 1013.0
20260510083016 67 22 0.0 0.0 0.00 0.03 0.02 92 1012.2
20260510081531 67 0 0.0 0.0 0.01 0.03 0.02 91 1013.3
20260510081519 67 22 0.0 0.0 0.01 0.03 0.02 92 1012.5
20260510080032 68 22 0.0 0.0 0.01 0.03 0.02 91 1012.7
20260510080029 68 0 0.0 0.0 0.01 0.03 0.02 91 1013.5
20260510074532 68 0 0.0 0.0 0.01 0.03 0.02 91 1013.3
20260510074513 68 24 0.0 0.0 0.01 0.03 0.02 91 1012.5
20260510073030 68 0 0.0 0.0 0.02 0.03 0.02 91 1013.2
20260510073015 68 26 0.0 0.0 0.02 0.03 0.02 91 1012.4
20260510071537 68 0 0.0 0.0 0.01 0.02 0.01 91 1013.2
20260510071518 68 25 0.0 0.0 0.01 0.02 0.01 91 1012.4
20260510070031 68 0 0.0 0.0 0.01 0.02 0.01 91 1012.7
20260510070012 68 25 0.0 0.0 0.01 0.02 0.01 91 1011.9
20260510064530 68 0 0.0 0.0 0.01 0.02 0.01 90 1013.0
20260510064511 68 15 0.0 0.0 0.01 0.02 0.01 90 1012.3
20260510063028 68 0 0.0 0.0 0.00 0.01 0.00 90 1013.4
20260510063008 68 15 0.0 0.0 0.00 0.01 0.00 90 1012.7
20260510061533 69 0 0.0 1.0 0.00 0.01 0.00 89 1013.3
20260510061507 69 15 0.0 0.0 0.00 0.01 0.00 90 1012.5
20260510060038 69 0 0.0 0.0 0.00 0.01 0.00 89 1013.4
20260510060018 69 15 0.0 0.0 0.00 0.01 0.00 90 1012.7
20260510054537 69 0 0.0 1.0 0.00 0.01 0.00 89 1013.5
20260510054509 69 15 0.0 1.0 0.00 0.01 0.00 89 1012.7
20260510053029 69 0 0.0 0.0 0.00 0.01 0.00 89 1013.7
20260510053004 69 15 0.0 0.0 0.00 0.01 0.00 89 1012.9
20260510051533 69 0 0.0 2.0 0.00 0.01 0.00 89 1013.8
20260510051504 69 15 0.0 2.0 0.00 0.01 0.00 89 1013.0
20260510050031 69 15 0.0 2.0 0.00 0.01 0.00 89 1013.7
20260510050003 69 15 0.0 2.0 0.00 0.04 0.00 89 1012.9
20260510044530 69 0 0.0 0.0 0.00 0.04 0.00 89 1014.0
20260510044503 69 15 0.0 0.0 0.00 0.04 0.00 89 1013.1
20260510043059 69 15 0.0 3.0 0.00 0.04 0.00 89 1012.8
20260510043033 69 0 0.0 3.0 0.00 0.04 0.00 89 1013.7
20260510041604 70 15 0.0 1.0 0.00 0.04 0.00 89 1012.6
20260510041528 70 0 0.0 1.0 0.00 0.04 0.00 89 1013.5
20260510040104 70 15 0.0 2.0 0.00 0.04 0.00 89 1012.4
20260510040030 70 0 0.0 2.0 0.00 0.04 0.00 88 1013.2
20260510034554 70 15 0.0 0.0 0.00 0.10 0.04 89 1012.5
20260510034528 70 0 0.0 0.0 0.00 0.10 0.04 88 1013.4
20260510033100 70 15 0.0 0.0 0.00 0.10 0.04 89 1012.3
20260510033029 70 0 0.0 0.0 0.00 0.10 0.04 88 1013.1
20260510031555 70 15 0.0 0.0 0.00 0.10 0.04 89 1012.2
20260510031531 70 0 0.0 0.0 0.00 0.10 0.04 88 1013.0
20260510030059 70 15 0.0 0.0 0.00 0.10 0.04 88 1012.0
20260510030029 70 0 0.0 0.0 0.00 0.10 0.04 88 1012.8
20260510024552 70 15 0.0 0.0 0.00 0.12 0.04 88 1012.3
20260510024530 70 0 0.0 0.0 0.00 0.12 0.04 88 1013.1
20260510023051 70 15 0.0 1.0 0.00 0.12 0.04 88 1012.3
20260510023028 70 0 0.0 1.0 0.00 0.12 0.04 87 1013.0
20260510021641 70 15 0.0 0.0 0.00 0.12 0.04 88 1012.0
20260510021532 70 0 0.0 3.0 0.00 0.12 0.04 87 1012.8
20260510020057 70 15 0.0 0.0 0.00 0.12 0.04 88 1012.1
20260510020032 70 0 0.0 0.0 0.00 0.12 0.04 87 1012.8
20260510014557 70 15 0.0 0.0 0.00 0.12 0.04 88 1011.8
20260510014535 70 0 0.0 1.0 0.00 0.12 0.04 87 1012.5
20260510013059 70 16 0.0 1.0 0.00 0.12 0.04 87 1011.9
20260510013028 70 0 0.0 1.0 0.00 0.12 0.04 87 1012.7
20260510011550 70 16 0.0 2.0 0.00 0.12 0.04 87 1011.8
20260510011531 70 0 0.0 2.0 0.00 0.12 0.04 87 1012.6
20260510010056 70 16 0.0 3.0 0.00 0.12 0.04 87 1011.7
20260510010030 70 0 0.0 3.0 0.00 0.12 0.04 87 1012.4
20260510004549 70 15 0.0 0.0 0.00 0.12 0.04 87 1011.5
20260510004530 70 0 0.0 0.0 0.00 0.12 0.04 86 1012.2
20260510003048 70 16 0.0 0.0 0.00 0.12 0.04 86 1011.4
20260510003038 70 0 0.0 0.0 0.00 0.12 0.04 86 1012.2
20260510001548 70 17 0.0 0.0 0.00 0.12 0.04 86 1011.1
20260510001530 70 0 0.0 0.0 0.00 0.12 0.04 86 1012.0
20260510000049 70 17 0.0 0.0 0.00 0.12 0.04 86 1010.9
20260510000030 70 0 0.0 0.0 0.00 0.12 0.04 85 1011.7
20260509234547 70 17 0.0 0.0 0.00 0.12 0.04 86 1011.0
20260509234538 70 0 0.0 1.0 0.00 0.12 0.04 85 1011.9
20260509233046 70 17 0.0 1.0 0.00 0.12 0.04 86 1010.9
20260509233032 70 0 0.0 3.0 0.00 0.12 0.04 85 1011.7
20260509231549 71 9 0.0 0.0 0.00 0.12 0.04 86 1011.0
20260509231535 71 0 0.0 0.0 0.00 0.12 0.04 85 1011.9
20260509230050 71 9 0.0 0.0 0.00 0.12 0.04 86 1010.6
20260509230031 71 0 0.0 0.0 0.00 0.12 0.04 85 1011.4
20260509224545 71 9 0.0 0.0 0.00 0.12 0.04 86 1010.7
20260509224533 71 0 0.0 0.0 0.00 0.12 0.04 85 1011.5
20260509223047 71 9 0.0 0.0 0.00 0.12 0.04 86 1010.6
20260509223031 71 0 0.0 0.0 0.00 0.12 0.04 85 1011.5
20260509221544 71 9 0.0 0.0 0.00 0.12 0.04 86 1010.4
20260509221530 71 0 0.0 0.0 0.00 0.12 0.04 85 1011.2
20260509220048 71 9 0.0 0.0 0.00 0.12 0.04 85 1010.8
20260509220030 71 0 0.0 0.0 0.00 0.12 0.04 84 1011.6
20260509214546 71 9 0.0 1.0 0.00 0.12 0.04 84 1010.7
20260509214531 71 0 0.0 1.0 0.00 0.12 0.04 84 1011.6
20260509213053 71 9 0.0 3.0 0.00 0.12 0.04 84 1011.0
20260509213030 71 0 0.0 3.0 0.00 0.12 0.04 83 1012.0
20260509211543 72 9 0.0 4.0 0.00 0.12 0.04 83 1011.3
20260509211528 72 0 1.0 4.0 0.00 0.12 0.04 82 1012.2
20260509210048 72 9 1.0 5.0 0.00 0.12 0.04 82 1010.9
20260509210030 72 9 0.0 5.0 0.00 0.12 0.04 82 1011.8
20260509204541 72 9 1.0 3.0 0.00 0.12 0.04 82 1010.9
20260509204530 72 9 1.0 3.0 0.00 0.12 0.04 81 1011.7
20260509203041 72 9 3.0 6.0 0.00 0.12 0.04 81 1011.0
20260509203039 72 9 2.0 7.0 0.00 0.12 0.04 81 1011.9
20260509201541 73 9 3.0 6.0 0.00 0.12 0.04 80 1011.0
20260509201530 73 9 3.0 7.0 0.00 0.12 0.04 80 1011.8
20260509200047 73 9 2.0 5.0 0.01 0.12 0.04 79 1010.9
20260509200029 73 9 2.0 5.0 0.01 0.12 0.04 78 1011.8
20260509194552 74 9 1.0 5.0 0.01 0.12 0.04 78 1011.0
20260509194531 74 9 2.0 5.0 0.01 0.12 0.04 78 1011.9
20260509193040 73 11 0.0 1.0 0.01 0.12 0.04 78 1010.5
20260509193037 73 0 0.0 1.0 0.01 0.12 0.04 77 1011.4
20260509191538 74 13 0.0 3.0 0.01 0.12 0.04 79 1010.5
20260509190040 75 13 0.0 1.0 0.00 0.11 0.03 77 1010.9
20260509190029 75 0 0.0 1.0 0.00 0.11 0.03 77 1011.8
20260509184538 76 0 0.0 1.0 0.00 0.11 0.03 74 1011.9
20260509183036 77 14 0.0 2.0 0.00 0.11 0.03 73 1011.1
20260509183032 77 0 0.0 2.0 0.00 0.11 0.03 72 1012.0
20260509181537 77 19 0.0 3.0 0.00 0.11 0.03 70 1011.3
20260509181529 77 0 0.0 3.0 0.00 0.11 0.03 70 1012.1
20260509180049 77 9 0.0 4.0 0.00 0.11 0.03 69 1011.3
20260509180032 77 0 0.0 4.0 0.00 0.11 0.03 69 1012.2
20260509174537 78 9 1.0 4.0 0.00 0.11 0.03 69 1011.3
20260509174531 78 9 1.0 4.0 0.00 0.11 0.03 68 1012.2
20260509173051 79 9 1.0 3.0 0.00 0.11 0.03 67 1011.3
20260509173029 79 0 0.0 3.0 0.00 0.11 0.03 66 1012.2
20260509171634 79 9 0.0 3.0 0.00 0.11 0.03 67 1011.4
20260509171531 79 9 0.0 3.0 0.00 0.11 0.03 67 1012.1
20260509170037 79 0 0.0 2.0 0.00 0.11 0.03 66 1012.3
20260509170034 79 11 0.0 2.0 0.00 0.11 0.03 66 1011.4
20260509164536 80 0 0.0 3.0 0.00 0.11 0.03 70 1012.4
20260509164531 80 12 0.0 3.0 0.00 0.11 0.03 70 1011.6
20260509163033 79 0 0.0 5.0 0.00 0.11 0.03 70 1012.5
20260509161534 78 9 0.0 2.0 0.00 0.11 0.03 76 1012.6
20260509161527 78 9 1.0 2.0 0.00 0.11 0.03 76 1011.8
20260509160036 76 13 0.0 4.0 0.00 0.11 0.03 77 1012.7
20260509160024 76 13 0.0 4.0 0.00 0.11 0.03 78 1011.8
20260509154528 75 0 0.0 0.0 0.00 0.11 0.03 80 1012.9
20260509154519 75 16 0.0 0.0 0.00 0.11 0.03 80 1012.1
20260509153038 74 0 0.0 1.0 0.00 0.11 0.03 81 1012.9
20260509153029 74 17 0.0 1.0 0.00 0.11 0.03 81 1012.2
20260509151530 73 0 0.0 3.0 0.00 0.11 0.03 83 1013.0
20260509151513 73 35 0.0 3.0 0.00 0.11 0.03 83 1012.2
20260509150031 73 0 0.0 1.0 0.00 0.11 0.03 84 1013.1
20260509150015 73 36 0.0 1.0 0.00 0.11 0.03 84 1012.4
20260509144532 72 24 0.0 3.0 0.00 0.11 0.03 84 1013.1
20260509144510 72 24 0.0 2.0 0.00 0.11 0.03 85 1012.4
20260509143031 72 0 0.0 1.0 0.00 0.11 0.03 89 1013.3
20260509143009 72 16 0.0 1.0 0.00 0.11 0.03 89 1012.5
20260509141531 71 0 0.0 2.0 0.00 0.11 0.03 91 1013.0
20260509141506 71 16 0.0 2.0 0.00 0.11 0.03 91 1012.2
20260509140032 71 0 0.0 2.0 0.00 0.11 0.03 93 1013.0
20260509140006 71 35 0.0 2.0 0.00 0.11 0.03 93 1012.1
20260509134531 71 0 0.0 0.0 0.00 0.11 0.03 94 1013.0
20260509134505 71 32 0.0 0.0 0.00 0.11 0.03 95 1012.1
20260509133100 70 24 0.0 0.0 0.00 0.11 0.03 95 1012.1
20260509133029 70 0 0.0 0.0 0.00 0.11 0.03 94 1013.0
20260509131600 70 45 0.0 0.0 0.00 0.11 0.03 95 1012.1
20260509131534 70 0 0.0 0.0 0.00 0.11 0.03 95 1012.9
20260509130059 70 38 0.0 0.0 0.00 0.11 0.03 95 1012.4
20260509130032 70 0 0.0 0.0 0.00 0.11 0.03 95 1013.2
20260509124558 70 60 0.0 0.0 0.00 0.11 0.03 95 1012.2
20260509124530 70 0 0.0 0.0 0.00 0.11 0.03 95 1013.1
20260509123058 70 54 0.0 0.0 0.00 0.11 0.03 96 1012.0
20260509123029 70 0 0.0 0.0 0.00 0.11 0.03 95 1012.7
20260509121558 69 42 0.0 4.0 0.00 0.11 0.03 96 1011.6
20260509121531 69 0 0.0 3.0 0.00 0.11 0.03 95 1012.4
20260509120055 68 17 0.0 0.0 0.00 0.11 0.03 95 1011.7
20260509120036 68 0 0.0 0.0 0.00 0.11 0.03 94 1012.5